User: anonymous   Login
Location: Caltech
(34.1382°N, 118.1253°W)
Time: 10:48:33
(UTC-07:00)
Language:

Cosmos 44 Rocket - Orbit

View from above orbital plane
View from above orbital plane
View from above satellite
View from above satellite

Ground track
Ground track

The orbit data is extracted from the following two-line orbital elements,

1 00877U 64053B   16207.21660218 -.00000062  00000-0  12567-4 0  9996
2 00877  65.0771 167.6781 0081772 245.2634 113.9938 14.59248585753805
Epoch (UTC): 25 July 2016 05:11:54
Eccentricity: 0.0081772
inclination: 65.0771°
perigee height: 638 km
apogee height: 753 km
right ascension of ascending node: 167.6781°
argument of perigee: 245.2634°
revolutions per day: 14.59248585
mean anomaly at epoch: 113.9938°
orbit number at epoch: 75380

The dashed part of the orbit path shows where the satellite is in the earth's shadow,  

DLR